This is the latest recevied weather packets stored in our database for station/object EA3CO-11. If no packets are shown the sender has not sent any weather packets the latest 10 day(s).
| Time | Temp. | Humidity | Pressure | Rain* | Wind** | Luminosity | Snow |
|---|---|---|---|---|---|---|---|
| 1778021247 | 14.44° C | 73% | 1013.6 hPa | - | - | - | - |
| 1778020347 | 14.44° C | 73% | 1013.8 hPa | - | - | - | - |
| 1778019447 | 14.44° C | 74% | 1014 hPa | - | - | - | - |
| 1778018547 | 14.44° C | 74% | 1014.1 hPa | - | - | - | - |
| 1778017647 | 13.89° C | 73% | 1014.2 hPa | - | - | - | - |
| 1778016747 | 14.44° C | 70% | 1014.2 hPa | - | - | - | - |
| 1778015846 | 14.44° C | 67% | 1013.9 hPa | - | - | - | - |
| 1778014946 | 15° C | 64% | 1013.8 hPa | - | - | - | - |
| 1778014046 | 14.44° C | 64% | 1013.7 hPa | - | - | - | - |
| 1778013146 | 14.44° C | 62% | 1013.5 hPa | - | - | - | - |
| 1778012246 | 14.44° C | 63% | 1013.1 hPa | - | - | - | - |
| 1778011346 | 13.89° C | 68% | 1012.9 hPa | - | - | - | - |
| 1778010446 | 15° C | 66% | 1012.9 hPa | - | - | - | - |
| 1778009546 | 15.56° C | 69% | 1012.9 hPa | - | - | - | - |
| 1778008645 | 15° C | 71% | 1012.9 hPa | - | - | - | - |
| 1778007745 | 15.56° C | 65% | 1012.9 hPa | - | - | - | - |
| 1778006845 | 15.56° C | 64% | 1012.7 hPa | - | - | - | - |
| 1778005945 | 15.56° C | 64% | 1012.6 hPa | - | - | - | - |
| 1778005045 | 15.56° C | 61% | 1012.4 hPa | - | - | - | - |
| 1778004145 | 16.67° C | 59% | 1012.8 hPa | - | - | - | - |
| 1778003245 | 16.67° C | 57% | 1013 hPa | - | - | - | - |
| 1778002345 | 16.67° C | 54% | 1013.1 hPa | - | - | - | - |
| 1778001445 | 16.67° C | 56% | 1013.2 hPa | - | - | - | - |
| 1778000545 | 16.67° C | 56% | 1013.4 hPa | - | - | - | - |
| 1777999644 | 17.22° C | 64% | 1013.3 hPa | - | - | - | - |
* Rain since midnight (hover to see other rain measurements)
** Current wind speed in m/s (hover to see current wind gust speed)